Regional Weather Roundup
Issued by NWS

Home | Current Version | Previous Version | Graphics & Text | Print | Product List | Glossary On
Versions: 1 2 3 4 5 6 7 8 9 10 11 12 13 14 15 16 17 18 19 20 21 22 23 24 25 26 27 28 29 30 31 32 33 34 35 36 37 38 39 40 41 42 43 44 45 46 47 48 49 50
000
ASUS45 KBOU 112107
RWRCO

WEATHER ROUNDUP FOR COLORADO
NATIONAL WEATHER SERVICE DENVER/BOULDER CO
200 PM MST THU FEB 11 2016

NOTE: "FAIR" INDICATES FEW OR NO CLOUDS BELOW 12000 FEET WITH NO
SIGNIFICANT WEATHER AND/OR OBSTRUCTIONS TO VISIBILITY.

COZ001>005-013-030-031-112200-
...NORTHWEST COLORADO...

CITY           SKY/WX    TMP DP  RH WIND       PRES   REMARKS
CRAIG          MIX PCPN  28  21  75 S3        30.37F
HAYDEN         CLOUDY    27  18  69 CALM      30.36F
MEEKER         CLOUDY    39  22  50 NE5       30.36F
MOUNT WERNER   NOT AVBL
STEAMBOAT SPGS CLOUDY    29  16  58 CALM      30.35F
WALDEN         CLOUDY    41  19  42 S7        30.31F
$$

COZ006>008-011-112200-
...WEST CENTRAL VALLEYS...

CITY           SKY/WX    TMP DP  RH WIND       PRES   REMARKS
GRAND JUNCTION SUNNY     40  24  53 N5        30.37F
MONTROSE       SUNNY     45  23  42 CALM      30.38F
EAGLE          SUNNY     39  14  35 CALM      30.38F
RIFLE          SUNNY     39  17  41 CALM      30.38F
DELTA          SUNNY     47  24  40 SW3       30.38F
NUCLA          SUNNY     45  21  39 CALM      30.41F
$$

COZ017>023-064>068-112200-
...SOUTHWEST COLORADO...

CITY           SKY/WX    TMP DP  RH WIND       PRES   REMARKS
DURANGO        SUNNY     41  20  43 NE7       30.34F
CORTEZ         CLOUDY    48  22  35 CALM      30.35F
PAGOSA SPRINGS SUNNY     50  14  23 CALM      30.36S
TELLURIDE      CLOUDY    49   4  16 W9        30.43S
WOLF CREEK PAS SUNNY     39   0  19 NW6       30.51S
$$

COZ009-010-012-014-032>034-037-058>063-112200-
...CENTRAL COLORADO...

CITY           SKY/WX    TMP DP  RH WIND       PRES   REMARKS
ASPEN          SUNNY     43  19  38 NW6       30.35F
BUENA VISTA    SUNNY     52  13  21 S10       30.27F
COPPER MTN     CLOUDY    37  10  32 W18G31    30.44S
BERTHOUD PASS  FAIR      28  18  64 NW54      30.32F WCI   9
COTTONWOOD PAS SUNNY     50   0  12 S14G22    30.35S
GUNNISON       CLOUDY    10   5  79 CALM      30.47F
KREMMLING      CLOUDY    21   9  58 CALM      30.41F
LEADVILLE      CLOUDY    43  11  27 NW15G25   30.36F
MONARCH PASS   CLOUDY    32   5  32 W36       30.51F WCI  16
SALIDA         NOT AVBL
SUNLIGHT       SUNNY     39  10  30 CALM      30.49F
WILKERSON PASS CLOUDY    41   9  26 W5        30.40F
$$

COZ069>075-112200-
...SAN LUIS VALLEY/SANGRE DE CRISTO MOUNTAINS...

CITY           SKY/WX    TMP DP  RH WIND       PRES   REMARKS
ALAMOSA        SUNNY     49   9  19 CALM      30.33F
LA VETA PASS   CLOUDY    43  12  28 S14G23    30.35S
SAGUACHE       SUNNY     46  18  31 S7        30.34F
$$

COZ035-036-038>040-112200-
...NORTHERN COLORADO FRONT RANGE...

CITY           SKY/WX    TMP DP  RH WIND       PRES   REMARKS
DENVER INTL AP PTSUNNY   62  25  24 E9        30.11S
DMNS CITY PARK   N/A     65  17  16 NW10G18   30.11S
AURORA         NOT AVBL
FRONT RANGE AP PTSUNNY   59  25  27 MISG      30.12F
ERIE MUNI ARPT CLOUDY    61  30  31 NE9       30.09F
BOULDER MUN AP CLOUDY    64  19  17 W26G37    30.09F
CENTENNIAL     CLOUDY    61  19  19 NW21G31   30.12F
BROOMFIELD     PTSUNNY   64  18  16 W23       30.12F
FORT COLLINS   CLOUDY    52  27  37 SE5       30.10F
LONGMONT       CLOUDY    59  30  32 NE5       30.11S
$$

COZ041-046-047-076>085-087-088-112200-
...PIKES PEAK/PALMER DIVIDE AND SOUTHERN FOOTHILLS...

CITY           SKY/WX    TMP DP  RH WIND       PRES   REMARKS
COLO. SPRINGS  CLOUDY    58  11  15 VRB3      30.16F
A. F. ACADEMY  CLOUDY    56  17  22 S8        30.15F
SCHRIEVER AFB  NOT AVBL
ELLICOTT       CLOUDY   N/A N/A N/A W5        30.15F
FALCON         NOT AVBL
FORT CARSON    CLOUDY    54  26  33 NW2       30.13F
LIMON          CLOUDY    48  28  46 N3        30.13F
MONUMENT HILL  CLOUDY    50  19  29 CALM      30.20S
TRINIDAD       CLOUDY    70   2   7 N12G20    30.14F
$$

COZ042>045-048>051-090-091-112200-
...NORTHEAST COLORADO...

CITY           SKY/WX    TMP DP  RH WIND       PRES   REMARKS
GREELEY ARPT   CLOUDY    50  30  46 E3        30.10F
AKRON          CLOUDY    55  30  38 N12       30.10F
BURLINGTON     CLOUDY    58  31  35 W12       30.10S
WRAY           NOT AVBL
STERLING       CLOUDY    57  32  38 N15       30.10R
HOLYOKE        CLOUDY    55  32  41 NW15      30.08S
FORT MORGAN    CLOUDY    59  28  30 N21G26    30.11S
$$

COZ086-089-092>099-112200-
...SOUTHEAST COLORADO...

CITY           SKY/WX    TMP DP  RH WIND       PRES   REMARKS
PUEBLO         CLOUDY    70  11  10 CALM      30.08F
LA JUNTA       CLOUDY    68  21  16 VRB5      30.10F
LAMAR          CLOUDY    67  20  16 W6        30.06F
SPRINGFIELD      N/A     67   9  10 W8        30.09F
$$



USA.gov is the U.S. government's official web portal to all federal, state and local government web resources and services.